軌道要素
Epoch 1996 Dec. 23.0 TT = JDT 2450440.5
T 1996 Dec. 13.04787 TT MPC
q 2.0973255 (2000.0) P Q
n 0.06989459 Peri. 208.71416 +0.51507869 -0.85527373
a 5.8367846 Node 210.38501 +0.80624194 +0.50584137
e 0.6406711 Incl. 6.42207 +0.29097745 +0.11238930
P 14.1
From 97 observations 1996 Sept. 14-2011 Jan. 1, mean residual 0".6.
|